Location: Township of Marena
(38.1747°N, 99.6798°W)
Time: 03:23:17
(UTC+00:00)

ADEOS Rocket - Pass Details

Date: 26 October 2020
Orbit: 859 x 1306 km, 98.7° (Epoch: 27 November)

Event Time Altitude Azimuth Distance (km) Brightness Sun altitude
Rises 11:38:03 0° 194° (SSW) 3,473 5.8 -16.5°
Reaches altitude 10° 11:40:46 10° 205° (SSW) 2,509 5.0 -16.0°
Maximum altitude 11:45:29 29° 264° (W) 1,534 3.5 -15.1°
Drops below altitude 10° 11:50:12 10° 324° (NW) 2,515 4.8 -14.1°
Sets 11:52:57 0° 335° (NNW) 3,482 5.6 -13.6°
